Tracking 25703 objects as of 2-Jul-2022
HD Live streaming from Space Station
objects crossing your sky now

SEASAT 1 DEB

Track SEASAT 1 DEB now!
10-day predictions


NORAD ID: 49948
Int'l Code: 1978-064W
Perigee: 563.2 km
Apogee: 593.9 km
Inclination: 108.0 °
Period: 96.1 minutes
Semi major axis: 6949 km
RCS: Unknown
Launch date: June 27, 1978
Source: United States (US)
Launch site: AIR FORCE WESTERN TEST RANGE (AFWTR)

Note: This is SATELLITE DEBRIS
aabbcc
Your satellite tracking list
Your tracking list is empty




NASA's NSSDC Master Catalog

Two Line Element Set (TLE):
1 49948U 78064W   22182.87411031  .00082300  00000-0  67591-2 0  9992
2 49948 108.0416 234.1783 0022029 175.7195 184.4170 14.98535681188871
Source of the keplerian elements: AFSPC